PAF5320 RPLL-RPVM

Flight info

Callsign PAF5320
Flight time 2h 18m
Altitude 11000
Route IPATA B462 MASBA W8 BATAY
Aircraft C208/L-SDFGR/C

Departure

Time 2026-05-06 09:09
Airport Ninoy Aquino International Airport (RPLL)

Arrival

Time 2026-05-06 11:27
Airport Mactan Cebu International Airport (RPVM)
Time Latitude Longitude Altitude Speed Heading
2026-05-06 08:49 14.51622 121.02632 67 ft 0 kts 86°
2026-05-06 09:03 14.51617 121.02668 60 ft 8 kts 120°
2026-05-06 09:03 14.51570 121.02707 67 ft 9 kts 150°
2026-05-06 09:04 14.51508 121.02738 67 ft 11 kts 155°
2026-05-06 09:04 14.51447 121.02718 63 ft 11 kts 239°
2026-05-06 09:04 14.51391 121.02618 61 ft 19 kts 239°
2026-05-06 09:04 14.51318 121.02486 66 ft 23 kts 239°
2026-05-06 09:05 14.51239 121.02342 68 ft 23 kts 240°
2026-05-06 09:05 14.51161 121.02203 69 ft 22 kts 241°
2026-05-06 09:05 14.51085 121.02067 63 ft 22 kts 240°
2026-05-06 09:05 14.51011 121.01934 68 ft 19 kts 240°
2026-05-06 09:06 14.50946 121.01815 67 ft 19 kts 240°
2026-05-06 09:06 14.50879 121.01697 67 ft 19 kts 239°
2026-05-06 09:06 14.50812 121.01578 63 ft 19 kts 239°
2026-05-06 09:06 14.50746 121.01458 67 ft 19 kts 240°
2026-05-06 09:07 14.50679 121.01337 65 ft 19 kts 239°
2026-05-06 09:07 14.50613 121.01219 68 ft 18 kts 242°
2026-05-06 09:07 14.50560 121.01155 64 ft 9 kts 174°
2026-05-06 09:07 14.50504 121.01186 69 ft 9 kts 150°
2026-05-06 09:08 14.50467 121.01234 69 ft 8 kts 71°
2026-05-06 09:08 14.50498 121.01290 69 ft 25 kts 63°
2026-05-06 09:08 14.50662 121.01584 64 ft 67 kts 58°
2026-05-06 09:08 14.50924 121.02047 164 ft 79 kts 66°
2026-05-06 09:09 14.51197 121.02553 339 ft 83 kts 66°
2026-05-06 09:09 14.51476 121.03086 566 ft 85 kts 66°
2026-05-06 09:09 14.51763 121.03629 784 ft 86 kts 65°
2026-05-06 09:09 14.52055 121.04193 840 ft 95 kts 65°
2026-05-06 09:10 14.52356 121.04813 1034 ft 95 kts 67°
2026-05-06 09:10 14.52652 121.05434 1205 ft 99 kts 64°
2026-05-06 09:10 14.52965 121.06085 1260 ft 109 kts 63°
2026-05-06 09:10 14.53435 121.06777 1344 ft 120 kts 57°
2026-05-06 09:11 14.53889 121.07489 1565 ft 119 kts 63°
2026-05-06 09:11 14.54310 121.08234 1824 ft 119 kts 59°
2026-05-06 09:11 14.54725 121.08965 2100 ft 118 kts 63°
2026-05-06 09:11 14.55138 121.09702 2287 ft 119 kts 60°
2026-05-06 09:12 14.55559 121.10443 2479 ft 120 kts 63°
2026-05-06 09:12 14.55967 121.11195 2730 ft 121 kts 62°
2026-05-06 09:12 14.56377 121.11952 2946 ft 122 kts 63°
2026-05-06 09:12 14.56761 121.12724 3146 ft 120 kts 72°
2026-05-06 09:13 14.56657 121.13577 3265 ft 125 kts 111°
2026-05-06 09:13 14.56131 121.14292 3396 ft 130 kts 142°
2026-05-06 09:13 14.55265 121.14599 3516 ft 132 kts 158°
2026-05-06 09:13 14.54419 121.14944 3678 ft 130 kts 151°
2026-05-06 09:14 14.53568 121.15273 3837 ft 132 kts 158°
2026-05-06 09:14 14.52690 121.15566 4007 ft 132 kts 155°
2026-05-06 09:14 14.51826 121.15898 4186 ft 133 kts 155°
2026-05-06 09:14 14.50967 121.16211 4354 ft 133 kts 156°
2026-05-06 09:15 14.50091 121.16533 4478 ft 134 kts 156°
2026-05-06 09:15 14.49215 121.16864 4601 ft 134 kts 156°
2026-05-06 09:15 14.48326 121.17192 4725 ft 136 kts 156°
2026-05-06 09:15 14.47437 121.17523 4872 ft 135 kts 155°
2026-05-06 09:16 14.46549 121.17852 5030 ft 136 kts 158°
2026-05-06 09:16 14.45653 121.18171 5196 ft 136 kts 156°
2026-05-06 09:16 14.44763 121.18503 5347 ft 136 kts 158°
2026-05-06 09:16 14.43870 121.18831 5477 ft 136 kts 156°
2026-05-06 09:17 14.42980 121.19168 5604 ft 136 kts 158°
2026-05-06 09:17 14.42082 121.19497 5731 ft 137 kts 158°
2026-05-06 09:17 14.41180 121.19826 5861 ft 137 kts 158°
2026-05-06 09:17 14.40280 121.20158 5984 ft 138 kts 158°
2026-05-06 09:18 14.39373 121.20495 6103 ft 139 kts 157°
2026-05-06 09:18 14.38473 121.20825 6214 ft 140 kts 158°
2026-05-06 09:18 14.37559 121.21163 6335 ft 139 kts 157°
2026-05-06 09:18 14.36646 121.21505 6454 ft 140 kts 158°
2026-05-06 09:19 14.35729 121.21832 6567 ft 139 kts 158°
2026-05-06 09:19 14.34813 121.22193 6711 ft 138 kts 152°
2026-05-06 09:19 14.34122 121.22829 6819 ft 136 kts 122°
2026-05-06 09:19 14.33527 121.23592 6917 ft 137 kts 131°
2026-05-06 09:20 14.32885 121.24330 7021 ft 138 kts 127°
2026-05-06 09:20 14.32282 121.25097 7135 ft 138 kts 128°
2026-05-06 09:20 14.31660 121.25850 7243 ft 138 kts 128°
2026-05-06 09:20 14.31049 121.26618 7360 ft 139 kts 127°
2026-05-06 09:21 14.30430 121.27380 7470 ft 138 kts 128°
2026-05-06 09:21 14.29812 121.28141 7570 ft 139 kts 127°
2026-05-06 09:21 14.29195 121.28903 7677 ft 138 kts 128°
2026-05-06 09:21 14.28584 121.29659 7776 ft 138 kts 127°
2026-05-06 09:22 14.27964 121.30422 7874 ft 139 kts 127°
2026-05-06 09:22 14.27345 121.31187 7980 ft 139 kts 127°
2026-05-06 09:22 14.26729 121.31954 8073 ft 139 kts 128°
2026-05-06 09:22 14.26105 121.32716 8165 ft 139 kts 128°
2026-05-06 09:23 14.25484 121.33485 8266 ft 139 kts 127°
2026-05-06 09:23 14.24863 121.34251 8369 ft 139 kts 128°
2026-05-06 09:23 14.24243 121.35020 8467 ft 140 kts 127°
2026-05-06 09:23 14.23620 121.35784 8573 ft 139 kts 127°
2026-05-06 09:24 14.23000 121.36554 8674 ft 140 kts 128°
2026-05-06 09:24 14.22372 121.37322 8777 ft 140 kts 127°
2026-05-06 09:24 14.21754 121.38092 8862 ft 139 kts 128°
2026-05-06 09:24 14.21126 121.38862 8959 ft 140 kts 128°
2026-05-06 09:25 14.20502 121.39632 9040 ft 140 kts 127°
2026-05-06 09:25 14.19884 121.40395 9154 ft 140 kts 127°
2026-05-06 09:25 14.19259 121.41166 9233 ft 140 kts 127°
2026-05-06 09:25 14.18637 121.41936 9340 ft 140 kts 127°
2026-05-06 09:26 14.18008 121.42706 9432 ft 141 kts 127°
2026-05-06 09:26 14.17376 121.43481 9531 ft 141 kts 127°
2026-05-06 09:26 14.16752 121.44257 9623 ft 141 kts 127°
2026-05-06 09:26 14.16122 121.45037 9700 ft 142 kts 127°
2026-05-06 09:27 14.15483 121.45818 9788 ft 142 kts 128°
2026-05-06 09:27 14.14850 121.46602 9876 ft 143 kts 127°
2026-05-06 09:27 14.14214 121.47389 9967 ft 143 kts 127°
2026-05-06 09:27 14.13572 121.48175 10041 ft 143 kts 127°
2026-05-06 09:28 14.12928 121.48963 10123 ft 144 kts 127°
2026-05-06 09:28 14.12296 121.49745 10205 ft 144 kts 127°
2026-05-06 09:28 14.11657 121.50537 10259 ft 144 kts 127°
2026-05-06 09:28 14.11013 121.51326 10344 ft 144 kts 127°
2026-05-06 09:29 14.10369 121.52120 10423 ft 144 kts 127°
2026-05-06 09:29 14.09718 121.52917 10496 ft 145 kts 126°
2026-05-06 09:29 14.09072 121.53722 10563 ft 146 kts 126°
2026-05-06 09:29 14.08418 121.54518 10653 ft 145 kts 126°
2026-05-06 09:30 14.07775 121.55316 10714 ft 145 kts 127°
2026-05-06 09:30 14.07129 121.56107 10789 ft 146 kts 126°
2026-05-06 09:30 14.06483 121.56911 10858 ft 145 kts 127°
2026-05-06 09:30 14.05818 121.57712 10869 ft 149 kts 127°
2026-05-06 09:31 14.05150 121.58542 10883 ft 152 kts 126°
2026-05-06 09:31 14.04461 121.59391 10885 ft 158 kts 126°
2026-05-06 09:31 14.03746 121.60268 10885 ft 161 kts 127°
2026-05-06 09:31 14.03020 121.61160 10884 ft 163 kts 127°
2026-05-06 09:32 14.02281 121.62067 10888 ft 167 kts 128°
2026-05-06 09:32 14.01526 121.62993 10887 ft 168 kts 127°
2026-05-06 09:32 14.01031 121.63603 10879 ft 167 kts 127°
2026-05-06 09:32 14.00035 121.64816 10879 ft 165 kts 127°
2026-05-06 09:33 13.99308 121.65731 10877 ft 165 kts 127°
2026-05-06 09:33 13.98820 121.66331 10881 ft 166 kts 128°
2026-05-06 09:33 13.97824 121.67543 10881 ft 165 kts 128°
2026-05-06 09:33 13.97089 121.68454 10877 ft 165 kts 127°
2026-05-06 09:34 13.96600 121.69051 10876 ft 165 kts 127°
2026-05-06 09:34 13.95863 121.69957 10875 ft 165 kts 127°
2026-05-06 09:34 13.95128 121.70862 10877 ft 164 kts 128°
2026-05-06 09:34 13.94391 121.71761 10877 ft 164 kts 127°
2026-05-06 09:35 13.93660 121.72665 10875 ft 164 kts 127°
2026-05-06 09:35 13.92683 121.73860 10877 ft 164 kts 127°
2026-05-06 09:35 13.92189 121.74468 10880 ft 164 kts 127°
2026-05-06 09:35 13.91214 121.75668 10879 ft 165 kts 127°
2026-05-06 09:36 13.90724 121.76271 10880 ft 166 kts 127°
2026-05-06 09:36 13.89974 121.77189 10877 ft 166 kts 128°
2026-05-06 09:36 13.89241 121.78085 10875 ft 166 kts 128°
2026-05-06 09:36 13.88503 121.78996 10880 ft 166 kts 127°
2026-05-06 09:37 13.87759 121.79909 10878 ft 166 kts 127°
2026-05-06 09:37 13.87014 121.80820 10875 ft 166 kts 127°
2026-05-06 09:37 13.86272 121.81733 10873 ft 166 kts 127°
2026-05-06 09:37 13.85529 121.82642 10875 ft 166 kts 128°
2026-05-06 09:38 13.84789 121.83550 10874 ft 166 kts 128°
2026-05-06 09:38 13.84049 121.84461 10875 ft 166 kts 127°
2026-05-06 09:38 13.83306 121.85374 10873 ft 166 kts 127°
2026-05-06 09:38 13.82561 121.86284 10872 ft 166 kts 127°
2026-05-06 09:39 13.81818 121.87195 10874 ft 166 kts 128°
2026-05-06 09:39 13.81076 121.88104 10874 ft 166 kts 128°
2026-05-06 09:39 13.80333 121.89016 10874 ft 166 kts 128°
2026-05-06 09:39 13.79597 121.89918 10875 ft 166 kts 128°
2026-05-06 09:40 13.78844 121.90842 10873 ft 166 kts 127°
2026-05-06 09:40 13.78100 121.91753 10876 ft 166 kts 127°
2026-05-06 09:40 13.76618 121.93566 10879 ft 167 kts 128°
2026-05-06 09:41 13.75872 121.94485 10869 ft 167 kts 127°
2026-05-06 09:41 13.75124 121.95401 10875 ft 167 kts 128°
2026-05-06 09:41 13.74374 121.96316 10874 ft 167 kts 128°
2026-05-06 09:41 13.73625 121.97234 10873 ft 167 kts 128°
2026-05-06 09:42 13.72876 121.98152 10875 ft 167 kts 127°
2026-05-06 09:42 13.72126 121.99072 10876 ft 168 kts 128°
2026-05-06 09:42 13.71376 121.99989 10874 ft 168 kts 128°
2026-05-06 09:42 13.70626 122.00908 10871 ft 168 kts 128°
2026-05-06 09:43 13.69875 122.01827 10873 ft 167 kts 128°
2026-05-06 09:43 13.69133 122.02732 10875 ft 167 kts 128°
2026-05-06 09:43 13.68375 122.03661 10873 ft 167 kts 128°
2026-05-06 09:43 13.67637 122.04566 10877 ft 167 kts 128°
2026-05-06 09:44 13.66889 122.05483 10870 ft 167 kts 128°
2026-05-06 09:44 13.66139 122.06396 10874 ft 167 kts 127°
2026-05-06 09:44 13.65391 122.07312 10875 ft 167 kts 128°
2026-05-06 09:44 13.64640 122.08233 10869 ft 167 kts 127°
2026-05-06 09:45 13.63891 122.09146 10871 ft 167 kts 128°
2026-05-06 09:45 13.63139 122.10061 10872 ft 167 kts 128°
2026-05-06 09:45 13.62395 122.10978 10870 ft 167 kts 128°
2026-05-06 09:45 13.61645 122.11897 10874 ft 168 kts 128°
2026-05-06 09:46 13.60892 122.12812 10876 ft 168 kts 128°
2026-05-06 09:46 13.60143 122.13729 10875 ft 168 kts 128°
2026-05-06 09:46 13.59392 122.14649 10865 ft 168 kts 128°
2026-05-06 09:46 13.58640 122.15567 10876 ft 168 kts 128°
2026-05-06 09:47 13.57888 122.16487 10869 ft 168 kts 128°
2026-05-06 09:47 13.57135 122.17406 10867 ft 168 kts 128°
2026-05-06 09:47 13.56381 122.18326 10874 ft 168 kts 128°
2026-05-06 09:47 13.55637 122.19232 10872 ft 168 kts 128°
2026-05-06 09:48 13.54886 122.20154 10873 ft 168 kts 127°
2026-05-06 09:48 13.54134 122.21068 10872 ft 168 kts 128°
2026-05-06 09:48 13.53384 122.21987 10870 ft 167 kts 128°
2026-05-06 09:48 13.52633 122.22903 10877 ft 167 kts 128°
2026-05-06 09:49 13.51884 122.23816 10871 ft 167 kts 128°
2026-05-06 09:49 13.51136 122.24731 10871 ft 167 kts 127°
2026-05-06 09:49 13.50388 122.25644 10867 ft 167 kts 128°
2026-05-06 09:49 13.49642 122.26556 10873 ft 167 kts 128°
2026-05-06 09:50 13.48901 122.27458 10867 ft 167 kts 128°
2026-05-06 09:50 13.48144 122.28381 10874 ft 167 kts 128°
2026-05-06 09:50 13.47406 122.29284 10871 ft 167 kts 128°
2026-05-06 09:50 13.46656 122.30198 10866 ft 167 kts 128°
2026-05-06 09:51 13.45906 122.31113 10864 ft 167 kts 128°
2026-05-06 09:51 13.45157 122.32029 10871 ft 167 kts 128°
2026-05-06 09:51 13.44407 122.32941 10873 ft 167 kts 128°
2026-05-06 09:51 13.43656 122.33858 10874 ft 167 kts 128°
2026-05-06 09:52 13.42905 122.34773 10870 ft 167 kts 128°
2026-05-06 09:52 13.42166 122.35671 10871 ft 167 kts 128°
2026-05-06 09:52 13.41420 122.36583 10879 ft 167 kts 128°
2026-05-06 09:52 13.40674 122.37493 10874 ft 167 kts 128°
2026-05-06 09:53 13.39925 122.38403 10872 ft 167 kts 128°
2026-05-06 09:53 13.39180 122.39313 10870 ft 167 kts 128°
2026-05-06 09:53 13.38433 122.40224 10874 ft 167 kts 129°
2026-05-06 09:53 13.37683 122.41137 10873 ft 167 kts 128°
2026-05-06 09:54 13.36938 122.42046 10870 ft 167 kts 128°
2026-05-06 09:54 13.36189 122.42955 10873 ft 167 kts 128°
2026-05-06 09:54 13.35445 122.43865 10877 ft 167 kts 128°
2026-05-06 09:54 13.34693 122.44777 10870 ft 167 kts 129°
2026-05-06 09:55 13.33947 122.45688 10877 ft 167 kts 129°
2026-05-06 09:55 13.33197 122.46600 10875 ft 167 kts 128°
2026-05-06 09:55 13.32449 122.47513 10878 ft 167 kts 129°
2026-05-06 09:55 13.31698 122.48425 10877 ft 167 kts 128°
2026-05-06 09:56 13.30958 122.49327 10875 ft 167 kts 129°
2026-05-06 09:56 13.30208 122.50238 10872 ft 167 kts 128°
2026-05-06 09:56 13.29460 122.51151 10871 ft 167 kts 129°
2026-05-06 09:56 13.28711 122.52059 10875 ft 167 kts 128°
2026-05-06 09:57 13.27965 122.52974 10873 ft 167 kts 129°
2026-05-06 09:57 13.27213 122.53881 10876 ft 167 kts 128°
2026-05-06 09:57 13.26467 122.54792 10873 ft 166 kts 129°
2026-05-06 09:57 13.25718 122.55703 10865 ft 166 kts 128°
2026-05-06 09:58 13.24971 122.56609 10875 ft 167 kts 129°
2026-05-06 09:58 13.24223 122.57520 10871 ft 167 kts 128°
2026-05-06 09:58 13.23474 122.58432 10880 ft 167 kts 129°
2026-05-06 09:58 13.22723 122.59343 10870 ft 167 kts 128°
2026-05-06 09:59 13.21972 122.60258 10868 ft 167 kts 129°
2026-05-06 09:59 13.21223 122.61168 10868 ft 167 kts 128°
2026-05-06 09:59 13.20471 122.62082 10869 ft 167 kts 129°
2026-05-06 09:59 13.19728 122.62982 10873 ft 167 kts 128°
2026-05-06 10:00 13.18978 122.63897 10870 ft 168 kts 128°
2026-05-06 10:00 13.18226 122.64808 10873 ft 167 kts 128°
2026-05-06 10:00 13.17476 122.65724 10875 ft 167 kts 128°
2026-05-06 10:00 13.16722 122.66634 10877 ft 167 kts 128°
2026-05-06 10:01 13.15975 122.67547 10875 ft 167 kts 128°
2026-05-06 10:01 13.15222 122.68457 10863 ft 167 kts 128°
2026-05-06 10:01 13.14472 122.69373 10869 ft 167 kts 128°
2026-05-06 10:01 13.13718 122.70282 10872 ft 167 kts 128°
2026-05-06 10:02 13.12969 122.71196 10865 ft 167 kts 128°
2026-05-06 10:02 13.12217 122.72107 10866 ft 167 kts 128°
2026-05-06 10:02 13.11468 122.73020 10868 ft 167 kts 128°
2026-05-06 10:02 13.10715 122.73929 10869 ft 167 kts 128°
2026-05-06 10:03 13.09966 122.74842 10874 ft 167 kts 128°
2026-05-06 10:03 13.09213 122.75752 10879 ft 167 kts 129°
2026-05-06 10:03 13.08466 122.76663 10872 ft 167 kts 128°
2026-05-06 10:03 13.07714 122.77571 10878 ft 167 kts 129°
2026-05-06 10:04 13.06972 122.78474 10875 ft 167 kts 128°
2026-05-06 10:04 13.06222 122.79382 10876 ft 167 kts 129°
2026-05-06 10:04 13.05471 122.80295 10872 ft 167 kts 128°
2026-05-06 10:04 13.04720 122.81205 10874 ft 167 kts 129°
2026-05-06 10:05 13.03971 122.82113 10877 ft 167 kts 128°
2026-05-06 10:05 13.03221 122.83023 10881 ft 167 kts 129°
2026-05-06 10:05 13.02471 122.83931 10871 ft 167 kts 128°
2026-05-06 10:05 13.01721 122.84842 10873 ft 167 kts 129°
2026-05-06 10:06 13.00969 122.85750 10878 ft 167 kts 128°
2026-05-06 10:06 13.00221 122.86662 10878 ft 167 kts 128°
2026-05-06 10:06 12.99468 122.87568 10869 ft 167 kts 128°
2026-05-06 10:06 12.98720 122.88482 10874 ft 167 kts 128°
2026-05-06 10:07 12.97966 122.89388 10874 ft 167 kts 128°
2026-05-06 10:07 12.97222 122.90296 10874 ft 166 kts 128°
2026-05-06 10:07 12.96471 122.91200 10875 ft 166 kts 128°
2026-05-06 10:07 12.95735 122.92097 10875 ft 166 kts 128°
2026-05-06 10:08 12.94987 122.92997 10870 ft 166 kts 128°
2026-05-06 10:08 12.94241 122.93908 10868 ft 166 kts 128°
2026-05-06 10:08 12.93491 122.94808 10870 ft 166 kts 128°
2026-05-06 10:08 12.92750 122.95714 10880 ft 166 kts 128°
2026-05-06 10:09 12.92000 122.96615 10877 ft 166 kts 129°
2026-05-06 10:09 12.91256 122.97521 10873 ft 166 kts 128°
2026-05-06 10:09 12.90508 122.98422 10879 ft 166 kts 129°
2026-05-06 10:09 12.89766 122.99323 10877 ft 166 kts 128°
2026-05-06 10:10 12.89020 123.00224 10876 ft 166 kts 129°
2026-05-06 10:10 12.88284 123.01117 10876 ft 166 kts 128°
2026-05-06 10:10 12.87538 123.02017 10876 ft 166 kts 129°
2026-05-06 10:10 12.86793 123.02919 10878 ft 166 kts 128°
2026-05-06 10:11 12.86048 123.03822 10879 ft 166 kts 129°
2026-05-06 10:11 12.85303 123.04719 10878 ft 165 kts 128°
2026-05-06 10:11 12.84562 123.05622 10877 ft 165 kts 128°
2026-05-06 10:11 12.83814 123.06519 10877 ft 165 kts 128°
2026-05-06 10:12 12.83076 123.07417 10876 ft 165 kts 128°
2026-05-06 10:12 12.82330 123.08314 10875 ft 165 kts 128°
2026-05-06 10:12 12.81588 123.09217 10871 ft 165 kts 128°
2026-05-06 10:12 12.80843 123.10112 10874 ft 165 kts 128°
2026-05-06 10:13 12.80104 123.11011 10877 ft 165 kts 128°
2026-05-06 10:13 12.79359 123.11906 10874 ft 165 kts 128°
2026-05-06 10:13 12.78620 123.12804 10871 ft 165 kts 128°
2026-05-06 10:13 12.77877 123.13697 10878 ft 165 kts 128°
2026-05-06 10:14 12.77139 123.14593 10877 ft 164 kts 128°
2026-05-06 10:14 12.76397 123.15485 10866 ft 164 kts 128°
2026-05-06 10:14 12.75668 123.16370 10879 ft 164 kts 128°
2026-05-06 10:14 12.74928 123.17261 10876 ft 164 kts 128°
2026-05-06 10:15 12.74188 123.18158 10873 ft 164 kts 128°
2026-05-06 10:15 12.73446 123.19052 10879 ft 164 kts 128°
2026-05-06 10:15 12.72706 123.19946 10877 ft 164 kts 128°
2026-05-06 10:15 12.71967 123.20838 10875 ft 164 kts 128°
2026-05-06 10:16 12.71227 123.21728 10875 ft 164 kts 128°
2026-05-06 10:16 12.70491 123.22623 10877 ft 164 kts 128°
2026-05-06 10:16 12.69998 123.23211 10878 ft 164 kts 128°
2026-05-06 10:16 12.69013 123.24404 10877 ft 164 kts 128°
2026-05-06 10:17 12.68276 123.25293 10877 ft 164 kts 128°
2026-05-06 10:17 12.67548 123.26171 10877 ft 164 kts 128°
2026-05-06 10:17 12.66813 123.27060 10877 ft 163 kts 128°
2026-05-06 10:17 12.66075 123.27948 10879 ft 163 kts 128°
2026-05-06 10:18 12.65340 123.28836 10877 ft 163 kts 128°
2026-05-06 10:18 12.64605 123.29723 10878 ft 163 kts 128°
2026-05-06 10:18 12.63869 123.30609 10878 ft 163 kts 128°
2026-05-06 10:18 12.63135 123.31494 10878 ft 163 kts 128°
2026-05-06 10:19 12.62401 123.32380 10868 ft 163 kts 128°
2026-05-06 10:19 12.61668 123.33266 10873 ft 163 kts 128°
2026-05-06 10:19 12.61183 123.33851 10878 ft 163 kts 128°
2026-05-06 10:19 12.60202 123.35029 10876 ft 162 kts 128°
2026-05-06 10:20 12.59718 123.35615 10876 ft 162 kts 128°
2026-05-06 10:20 12.58985 123.36498 10875 ft 163 kts 127°
2026-05-06 10:20 12.58253 123.37381 10869 ft 163 kts 128°
2026-05-06 10:20 12.57275 123.38558 10868 ft 162 kts 128°
2026-05-06 10:21 12.56544 123.39438 10877 ft 162 kts 128°
2026-05-06 10:21 12.56062 123.40022 10875 ft 162 kts 127°
2026-05-06 10:21 12.55332 123.40903 10881 ft 162 kts 128°
2026-05-06 10:21 12.54363 123.42068 10879 ft 162 kts 127°
2026-05-06 10:22 12.53635 123.42946 10880 ft 162 kts 127°
2026-05-06 10:22 12.53143 123.43538 10882 ft 162 kts 128°
2026-05-06 10:22 12.52415 123.44414 10881 ft 162 kts 128°
2026-05-06 10:22 12.51686 123.45292 10877 ft 162 kts 127°
2026-05-06 10:23 12.50957 123.46169 10882 ft 162 kts 127°
2026-05-06 10:23 12.50229 123.47046 10879 ft 161 kts 127°
2026-05-06 10:23 12.49504 123.47921 10880 ft 161 kts 128°
2026-05-06 10:23 12.48784 123.48784 10880 ft 162 kts 127°
2026-05-06 10:24 12.48057 123.49663 10878 ft 162 kts 127°
2026-05-06 10:24 12.47326 123.50541 10876 ft 162 kts 128°
2026-05-06 10:24 12.46596 123.51420 10881 ft 162 kts 128°
2026-05-06 10:24 12.45864 123.52301 10881 ft 162 kts 128°
2026-05-06 10:25 12.45131 123.53182 10881 ft 162 kts 127°
2026-05-06 10:25 12.44398 123.54062 10882 ft 163 kts 127°
2026-05-06 10:25 12.43666 123.54946 10880 ft 163 kts 128°
2026-05-06 10:25 12.42931 123.55829 10879 ft 163 kts 128°
2026-05-06 10:26 12.42199 123.56711 10871 ft 162 kts 128°
2026-05-06 10:26 12.41465 123.57591 10878 ft 162 kts 127°
2026-05-06 10:26 12.40737 123.58466 10873 ft 162 kts 128°
2026-05-06 10:26 12.40009 123.59341 10878 ft 162 kts 128°
2026-05-06 10:27 12.39281 123.60220 10878 ft 162 kts 128°
2026-05-06 10:27 12.38550 123.61096 10873 ft 162 kts 128°
2026-05-06 10:27 12.37819 123.61975 10880 ft 162 kts 127°
2026-05-06 10:27 12.37027 123.62795 10876 ft 164 kts 143°
2026-05-06 10:28 12.35955 123.63224 10874 ft 168 kts 164°
2026-05-06 10:28 12.34796 123.63414 10880 ft 169 kts 167°
2026-05-06 10:28 12.33655 123.63629 10881 ft 168 kts 166°
2026-05-06 10:28 12.32500 123.63832 10881 ft 169 kts 167°
2026-05-06 10:29 12.31323 123.64033 10881 ft 169 kts 167°
2026-05-06 10:29 12.30165 123.64237 10880 ft 169 kts 166°
2026-05-06 10:29 12.29019 123.64439 10882 ft 169 kts 167°
2026-05-06 10:29 12.27855 123.64643 10878 ft 169 kts 167°
2026-05-06 10:30 12.26695 123.64845 10868 ft 168 kts 167°
2026-05-06 10:30 12.25546 123.65047 10875 ft 168 kts 166°
2026-05-06 10:30 12.24392 123.65251 10876 ft 169 kts 167°
2026-05-06 10:30 12.23231 123.65453 10870 ft 169 kts 167°
2026-05-06 10:31 12.22070 123.65653 10873 ft 168 kts 167°
2026-05-06 10:31 12.20921 123.65860 10875 ft 168 kts 166°
2026-05-06 10:31 12.19770 123.66057 10878 ft 168 kts 167°
2026-05-06 10:31 12.18616 123.66262 10876 ft 169 kts 166°
2026-05-06 10:32 12.17455 123.66464 10873 ft 169 kts 166°
2026-05-06 10:32 12.16301 123.66668 10872 ft 167 kts 166°
2026-05-06 10:32 12.15153 123.66871 10872 ft 167 kts 166°
2026-05-06 10:32 12.14007 123.67064 10875 ft 167 kts 167°
2026-05-06 10:33 12.12879 123.67265 10871 ft 167 kts 165°
2026-05-06 10:33 12.11728 123.67470 10876 ft 168 kts 167°
2026-05-06 10:33 12.10563 123.67667 10876 ft 167 kts 165°
2026-05-06 10:33 12.09416 123.67872 10875 ft 167 kts 167°
2026-05-06 10:34 12.08271 123.68069 10872 ft 167 kts 167°
2026-05-06 10:34 12.07136 123.68272 10879 ft 167 kts 166°
2026-05-06 10:34 12.05985 123.68472 10879 ft 168 kts 166°
2026-05-06 10:34 12.04830 123.68674 10875 ft 168 kts 167°
2026-05-06 10:35 12.03681 123.68874 10881 ft 168 kts 167°
2026-05-06 10:35 12.02532 123.69075 10872 ft 167 kts 167°
2026-05-06 10:35 12.01383 123.69278 10876 ft 168 kts 166°
2026-05-06 10:35 12.00231 123.69478 10877 ft 168 kts 166°
2026-05-06 10:36 11.99083 123.69678 10868 ft 168 kts 166°
2026-05-06 10:36 11.97927 123.69883 10870 ft 168 kts 166°
2026-05-06 10:36 11.96771 123.70080 10875 ft 168 kts 167°
2026-05-06 10:36 11.95623 123.70285 10875 ft 168 kts 165°
2026-05-06 10:37 11.94471 123.70487 10875 ft 168 kts 167°
2026-05-06 10:37 11.93319 123.70684 10873 ft 168 kts 167°
2026-05-06 10:37 11.92167 123.70887 10874 ft 168 kts 166°
2026-05-06 10:37 11.91014 123.71089 10871 ft 168 kts 166°
2026-05-06 10:38 11.89863 123.71291 10875 ft 168 kts 167°
2026-05-06 10:38 11.88723 123.71489 10875 ft 168 kts 166°
2026-05-06 10:38 11.87574 123.71691 10874 ft 168 kts 166°
2026-05-06 10:38 11.86418 123.71890 10871 ft 168 kts 166°
2026-05-06 10:39 11.85267 123.72092 10875 ft 168 kts 166°
2026-05-06 10:39 11.84117 123.72296 10868 ft 168 kts 166°
2026-05-06 10:39 11.82962 123.72495 10868 ft 168 kts 167°
2026-05-06 10:39 11.81808 123.72696 10861 ft 168 kts 166°
2026-05-06 10:40 11.80654 123.72900 10860 ft 168 kts 166°
2026-05-06 10:40 11.79501 123.73103 10869 ft 168 kts 167°
2026-05-06 10:40 11.78350 123.73302 10865 ft 168 kts 167°
2026-05-06 10:40 11.77199 123.73501 10867 ft 168 kts 167°
2026-05-06 10:41 11.76049 123.73702 10864 ft 168 kts 167°
2026-05-06 10:41 11.74897 123.73903 10867 ft 168 kts 166°
2026-05-06 10:41 11.73747 123.74107 10866 ft 168 kts 166°
2026-05-06 10:41 11.72609 123.74304 10868 ft 168 kts 168°
2026-05-06 10:42 11.71460 123.74503 10870 ft 168 kts 166°
2026-05-06 10:42 11.70311 123.74706 10870 ft 167 kts 167°
2026-05-06 10:42 11.69161 123.74904 10870 ft 168 kts 167°
2026-05-06 10:42 11.68010 123.75106 10866 ft 168 kts 167°
2026-05-06 10:43 11.66858 123.75306 10865 ft 168 kts 167°
2026-05-06 10:43 11.65707 123.75506 10865 ft 168 kts 167°
2026-05-06 10:43 11.64557 123.75709 10864 ft 168 kts 167°
2026-05-06 10:44 11.62259 123.76110 10866 ft 167 kts 167°
2026-05-06 10:44 11.61109 123.76309 10859 ft 167 kts 166°
2026-05-06 10:44 11.59963 123.76508 10865 ft 167 kts 167°
2026-05-06 10:44 11.58815 123.76710 10860 ft 167 kts 166°
2026-05-06 10:45 11.57668 123.76910 10865 ft 167 kts 167°
2026-05-06 10:45 11.56519 123.77111 10868 ft 167 kts 167°
2026-05-06 10:45 11.55387 123.77306 10865 ft 167 kts 167°
2026-05-06 10:45 11.54236 123.77507 10869 ft 167 kts 167°
2026-05-06 10:46 11.53088 123.77709 10866 ft 167 kts 167°
2026-05-06 10:46 11.51942 123.77907 10866 ft 167 kts 167°
2026-05-06 10:46 11.50792 123.78109 10863 ft 167 kts 167°
2026-05-06 10:46 11.49643 123.78308 10858 ft 167 kts 167°
2026-05-06 10:47 11.48494 123.78507 10862 ft 167 kts 166°
2026-05-06 10:47 11.47345 123.78708 10864 ft 167 kts 167°
2026-05-06 10:47 11.46199 123.78909 10860 ft 167 kts 167°
2026-05-06 10:47 11.45052 123.79110 10858 ft 167 kts 167°
2026-05-06 10:48 11.43906 123.79308 10864 ft 167 kts 167°
2026-05-06 10:48 11.42760 123.79507 10860 ft 167 kts 167°
2026-05-06 10:48 11.41614 123.79706 10865 ft 167 kts 167°
2026-05-06 10:48 11.40469 123.79906 10862 ft 167 kts 167°
2026-05-06 10:49 11.39338 123.80103 10860 ft 167 kts 167°
2026-05-06 10:49 11.38194 123.80302 10858 ft 166 kts 167°
2026-05-06 10:49 11.37053 123.80502 10862 ft 166 kts 167°
2026-05-06 10:49 11.35908 123.80699 10858 ft 166 kts 167°
2026-05-06 10:50 11.34768 123.80898 10859 ft 166 kts 167°
2026-05-06 10:50 11.33626 123.81097 10859 ft 166 kts 167°
2026-05-06 10:50 11.32485 123.81296 10860 ft 166 kts 167°
2026-05-06 10:50 11.31342 123.81496 10861 ft 166 kts 167°
2026-05-06 10:51 11.30199 123.81693 10862 ft 167 kts 167°
2026-05-06 10:51 11.29054 123.81893 10855 ft 167 kts 167°
2026-05-06 10:51 11.27923 123.82088 10853 ft 167 kts 167°
2026-05-06 10:51 11.26782 123.82289 10855 ft 166 kts 167°
2026-05-06 10:52 11.25640 123.82486 10860 ft 166 kts 167°
2026-05-06 10:52 11.24499 123.82686 10860 ft 166 kts 167°
2026-05-06 10:52 11.23359 123.82883 10860 ft 166 kts 167°
2026-05-06 10:52 11.22221 123.83081 10854 ft 166 kts 167°
2026-05-06 10:53 11.21085 123.83278 10858 ft 166 kts 167°
2026-05-06 10:53 11.19945 123.83477 10860 ft 166 kts 167°
2026-05-06 10:53 11.18801 123.83676 10790 ft 170 kts 167°
2026-05-06 10:53 11.17605 123.83881 10567 ft 176 kts 168°
2026-05-06 10:54 11.16427 123.84079 10335 ft 168 kts 168°
2026-05-06 10:54 11.15278 123.84283 10114 ft 168 kts 167°
2026-05-06 10:54 11.14119 123.84473 9888 ft 170 kts 172°
2026-05-06 10:54 11.12990 123.84278 9853 ft 164 kts 196°
2026-05-06 10:55 11.11912 123.83964 9851 ft 162 kts 189°
2026-05-06 10:55 11.10795 123.83690 9856 ft 167 kts 193°
2026-05-06 10:55 11.09675 123.83358 9858 ft 167 kts 192°
2026-05-06 10:55 11.08553 123.83050 9858 ft 166 kts 192°
2026-05-06 10:56 11.07439 123.82734 9859 ft 166 kts 192°
2026-05-06 10:56 11.06323 123.82427 9858 ft 166 kts 192°
2026-05-06 10:56 11.05210 123.82112 9858 ft 166 kts 192°
2026-05-06 10:56 11.04111 123.81808 9857 ft 166 kts 192°
2026-05-06 10:57 11.02997 123.81496 9856 ft 166 kts 192°
2026-05-06 10:57 11.01886 123.81186 9856 ft 166 kts 192°
2026-05-06 10:57 11.00776 123.80874 9856 ft 166 kts 192°
2026-05-06 10:57 10.99664 123.80565 9856 ft 165 kts 192°
2026-05-06 10:58 10.98552 123.80254 9857 ft 166 kts 192°
2026-05-06 10:58 10.97440 123.79943 9854 ft 165 kts 192°
2026-05-06 10:58 10.96329 123.79634 9859 ft 166 kts 192°
2026-05-06 10:58 10.95213 123.79321 9822 ft 167 kts 192°
2026-05-06 10:59 10.94085 123.79005 9730 ft 167 kts 192°
2026-05-06 10:59 10.92966 123.78690 9623 ft 166 kts 192°
2026-05-06 10:59 10.91859 123.78384 9508 ft 165 kts 192°
2026-05-06 10:59 10.90754 123.78074 9407 ft 164 kts 192°
2026-05-06 11:00 10.89650 123.77768 9291 ft 164 kts 192°
2026-05-06 11:00 10.88566 123.77465 9185 ft 164 kts 192°
2026-05-06 11:00 10.87467 123.77158 9080 ft 164 kts 192°
2026-05-06 11:00 10.86367 123.76851 8962 ft 163 kts 192°
2026-05-06 11:01 10.85268 123.76545 8855 ft 164 kts 192°
2026-05-06 11:01 10.84170 123.76238 8756 ft 164 kts 192°
2026-05-06 11:01 10.83073 123.75932 8644 ft 163 kts 192°
2026-05-06 11:01 10.81978 123.75626 8534 ft 163 kts 192°
2026-05-06 11:02 10.80883 123.75322 8429 ft 163 kts 192°
2026-05-06 11:02 10.79787 123.75016 8320 ft 163 kts 192°
2026-05-06 11:02 10.78693 123.74711 8214 ft 163 kts 192°
2026-05-06 11:02 10.77607 123.74407 8114 ft 163 kts 192°
2026-05-06 11:03 10.76506 123.74101 8002 ft 164 kts 192°
2026-05-06 11:03 10.75775 123.73897 7926 ft 164 kts 192°
2026-05-06 11:03 10.74674 123.73590 7818 ft 164 kts 192°
2026-05-06 11:03 10.73204 123.73179 7671 ft 164 kts 192°
2026-05-06 11:04 10.72478 123.72977 7603 ft 164 kts 192°
2026-05-06 11:04 10.71007 123.72568 7454 ft 164 kts 192°
2026-05-06 11:04 10.69907 123.72261 7345 ft 164 kts 192°
2026-05-06 11:04 10.68820 123.71958 7238 ft 164 kts 192°
2026-05-06 11:05 10.67719 123.71650 7127 ft 164 kts 192°
2026-05-06 11:05 10.66625 123.71346 7020 ft 162 kts 192°
2026-05-06 11:05 10.65544 123.71046 6913 ft 161 kts 192°
2026-05-06 11:05 10.64460 123.70744 6809 ft 161 kts 192°
2026-05-06 11:06 10.63376 123.70442 6697 ft 161 kts 192°
2026-05-06 11:06 10.62293 123.70140 6596 ft 161 kts 192°
2026-05-06 11:06 10.61209 123.69838 6487 ft 161 kts 192°
2026-05-06 11:06 10.60141 123.69541 6448 ft 157 kts 193°
2026-05-06 11:07 10.59090 123.69250 6395 ft 156 kts 192°
2026-05-06 11:07 10.58034 123.68956 6306 ft 159 kts 193°
2026-05-06 11:07 10.57328 123.68756 6240 ft 159 kts 192°
2026-05-06 11:07 10.55903 123.68361 6097 ft 161 kts 193°
2026-05-06 11:08 10.54823 123.68059 5991 ft 161 kts 192°
2026-05-06 11:08 10.53743 123.67759 5884 ft 161 kts 193°
2026-05-06 11:08 10.52665 123.67459 5777 ft 161 kts 192°
2026-05-06 11:08 10.51935 123.67257 5707 ft 161 kts 193°
2026-05-06 11:09 10.50506 123.66857 5564 ft 161 kts 192°
2026-05-06 11:09 10.49788 123.66661 5496 ft 161 kts 193°
2026-05-06 11:09 10.48708 123.66355 5388 ft 161 kts 193°
2026-05-06 11:09 10.47624 123.66058 5281 ft 162 kts 192°
2026-05-06 11:10 10.46542 123.65753 5177 ft 161 kts 192°
2026-05-06 11:10 10.45456 123.65455 5069 ft 162 kts 192°
2026-05-06 11:10 10.44372 123.65147 4956 ft 162 kts 192°
2026-05-06 11:10 10.43287 123.64851 4853 ft 161 kts 192°
2026-05-06 11:11 10.42210 123.64548 4750 ft 160 kts 193°
2026-05-06 11:11 10.41144 123.64254 4642 ft 158 kts 192°
2026-05-06 11:11 10.40086 123.63957 4531 ft 158 kts 193°
2026-05-06 11:11 10.39025 123.63666 4429 ft 158 kts 192°
2026-05-06 11:12 10.38322 123.63469 4358 ft 158 kts 193°
2026-05-06 11:12 10.34554 123.62802 4003 ft 152 kts 157°
2026-05-06 11:13 10.33657 123.63309 3997 ft 145 kts 136°
2026-05-06 11:13 10.32974 123.64051 3998 ft 145 kts 132°
2026-05-06 11:13 10.32225 123.64759 4000 ft 148 kts 134°
2026-05-06 11:13 10.31502 123.65503 4004 ft 148 kts 131°
2026-05-06 11:14 10.30782 123.66228 4004 ft 148 kts 132°
2026-05-06 11:14 10.30052 123.66981 4004 ft 148 kts 132°
2026-05-06 11:14 10.29326 123.67707 4003 ft 149 kts 133°
2026-05-06 11:14 10.28600 123.68458 4004 ft 149 kts 132°
2026-05-06 11:15 10.27855 123.69209 4004 ft 149 kts 132°
2026-05-06 11:15 10.27135 123.69946 4003 ft 149 kts 132°
2026-05-06 11:15 10.26395 123.70692 4002 ft 150 kts 133°
2026-05-06 11:15 10.25657 123.71444 4000 ft 150 kts 132°
2026-05-06 11:16 10.24923 123.72190 4003 ft 149 kts 132°
2026-05-06 11:16 10.24193 123.72936 3998 ft 148 kts 131°
2026-05-06 11:16 10.23474 123.73675 3995 ft 146 kts 133°
2026-05-06 11:16 10.22744 123.74391 3952 ft 146 kts 131°
2026-05-06 11:17 10.22028 123.75138 3878 ft 150 kts 132°
2026-05-06 11:17 10.21279 123.75891 3784 ft 153 kts 132°
2026-05-06 11:17 10.20535 123.76646 3678 ft 146 kts 133°
2026-05-06 11:17 10.19846 123.77342 3579 ft 134 kts 131°
2026-05-06 11:18 10.19198 123.78003 3493 ft 130 kts 131°
2026-05-06 11:18 10.18569 123.78652 3419 ft 128 kts 131°
2026-05-06 11:18 10.17940 123.79284 3338 ft 127 kts 131°
2026-05-06 11:18 10.17321 123.79921 3260 ft 127 kts 131°
2026-05-06 11:19 10.16694 123.80550 3173 ft 126 kts 131°
2026-05-06 11:19 10.16100 123.81170 3091 ft 120 kts 128°
2026-05-06 11:19 10.15779 123.81877 3060 ft 109 kts 95°
2026-05-06 11:19 10.15806 123.82645 3010 ft 109 kts 75°
2026-05-06 11:20 10.16163 123.83289 3004 ft 107 kts 49°
2026-05-06 11:20 10.16708 123.83817 2957 ft 110 kts 45°
2026-05-06 11:20 10.17234 123.84378 2890 ft 110 kts 46°
2026-05-06 11:20 10.17792 123.84924 2818 ft 111 kts 45°
2026-05-06 11:21 10.18152 123.85293 2775 ft 111 kts 46°
2026-05-06 11:21 10.18894 123.86032 2677 ft 112 kts 45°
2026-05-06 11:21 10.19444 123.86589 2609 ft 112 kts 45°
2026-05-06 11:21 10.19993 123.87137 2529 ft 112 kts 45°
2026-05-06 11:22 10.20549 123.87696 2454 ft 112 kts 45°
2026-05-06 11:22 10.21104 123.88251 2401 ft 109 kts 46°
2026-05-06 11:22 10.21462 123.88615 2403 ft 107 kts 44°
2026-05-06 11:22 10.22168 123.89317 2289 ft 107 kts 47°
2026-05-06 11:23 10.22672 123.89829 2075 ft 97 kts 45°
2026-05-06 11:23 10.22974 123.90132 1927 ft 86 kts 45°
2026-05-06 11:23 10.23389 123.90541 1752 ft 88 kts 45°
2026-05-06 11:23 10.23829 123.90980 1636 ft 89 kts 48°
2026-05-06 11:24 10.24269 123.91424 1528 ft 90 kts 44°
2026-05-06 11:24 10.24867 123.92025 1396 ft 91 kts 46°
2026-05-06 11:24 10.25164 123.92318 1334 ft 88 kts 45°
2026-05-06 11:24 10.25596 123.92755 1243 ft 89 kts 45°
2026-05-06 11:25 10.25894 123.93053 1179 ft 91 kts 45°
2026-05-06 11:25 10.26202 123.93356 1109 ft 91 kts 46°
2026-05-06 11:25 10.27383 123.94558 832 ft 90 kts 46°
2026-05-06 11:26 10.27805 123.95003 681 ft 85 kts 46°
2026-05-06 11:26 10.28218 123.95421 561 ft 82 kts 41°
2026-05-06 11:26 10.28641 123.95824 390 ft 86 kts 43°
2026-05-06 11:26 10.29076 123.96259 280 ft 88 kts 44°
2026-05-06 11:27 10.29511 123.96697 159 ft 87 kts 41°
2026-05-06 11:27 10.29926 123.97113 43 ft 82 kts 43°
2026-05-06 11:27 10.30242 123.97428 37 ft 49 kts 45°
2026-05-06 11:27 10.30441 123.97626 36 ft 30 kts 44°
2026-05-06 11:28 10.30570 123.97756 35 ft 24 kts 44°
2026-05-06 11:28 10.30674 123.97859 35 ft 10 kts 41°
2026-05-06 11:28 10.30735 123.97858 35 ft 9 kts 318°
2026-05-06 11:28 10.30781 123.97809 35 ft 10 kts 314°
2026-05-06 11:29 10.30825 123.97763 35 ft 10 kts 314°
2026-05-06 11:29 10.30871 123.97714 35 ft 10 kts 314°
2026-05-06 11:29 10.30910 123.97695 36 ft 7 kts 18°
2026-05-06 11:29 10.30949 123.97729 36 ft 8 kts 42°
2026-05-06 11:30 10.30962 123.97741 35 ft 8 kts 45°
2026-05-06 11:30 10.31012 123.97775 35 ft 9 kts 343°
2026-05-06 11:30 10.31061 123.97729 36 ft 10 kts 315°
2026-05-06 11:30 10.31101 123.97673 35 ft 10 kts 260°
2026-05-06 11:31 10.31055 123.97630 36 ft 9 kts 186°
2026-05-06 11:31 10.31018 123.97666 36 ft 7 kts 89°
2026-05-06 11:31 10.31019 123.97673 36 ft 0 kts 72°